This demonstration page uses our WeatherBlox Daily Observations layout. Learn more.

39.92423, -83.80882

Hourly Observations for June 2, 2016

Temp ( °F °C ) Dew Point ( °F °C ) Humidity (%) Winds ( mph kmh ) Pressure ( in mb ) Visibility ( mi km ) Precip ( " mm )
12:56 am 00:56 Mostly Clear 69 20.5 68 20 97 97 SSW 5 7 29.98 1015 10 16.0934 0 0
1:56 am 01:56 Partly Cloudy 69 20.5 67 19.4 93 93 SW 6 9 29.98 1015 10 16.0934 0 0
2:56 am 02:56 Clear 67 19.4 67 19.4 100 100 SW 5 7 29.97 1015 10 16.0934 0 0
3:56 am 03:56 Clear 67 19.4 67 19.4 100 100 W 5 7 29.98 1015 10 16.0934 0 0
4:56 am 04:56 Clear 66 18.8 66 18.8 100 100 Calm 29.97 1015 10 16.0934 0 0
5:56 am 05:56 Clear with Mist and Fog 65 18.3 65 18.3 100 100 SSW 3 6 29.99 1016 5 8.0467 0 0
6:56 am 06:56 Sunny with Mist and Fog 66 18.8 66 18.8 100 100 SSW 6 9 30.01 1016 3 4.82802 0 0
7:03 am 07:03 Sunny with Mist and Fog 66 19 66 19 100 100 SW 5 7 30 1016 2.5 4.02335 0 0
7:44 am 07:44 Sunny with Mist and Fog 66 19 66 19 100 100 WSW 5 7 30 1016 4 6.43736 0 0
7:56 am 07:56 Sunny with Mist and Fog 68 20 68 20 100 100 WSW 6 9 30.02 1017 5 8.0467 0 0
8:56 am 08:56 Sunny 71 21.6 68 20 91 91 WNW 6 9 30.04 1017 10 16.0934 0 0
9:56 am 09:56 Sunny 74 23.3 68 20 82 82 W 5 7 30.04 1017 10 16.0934 0 0
10:56 am 10:56 Mostly Sunny 78 25.5 67 19.4 69 69 NW 5 7 30.04 1017 10 16.0934 0 0
11:56 am 11:56 Partly Cloudy 78 25.5 67 19.4 69 69 VRB 5 7 30.05 1018 10 16.0934 0 0
12:56 pm 12:56 Partly Cloudy 83 28.3 65 18.3 55 55 WNW 5 7 30.05 1018 10 16.0934 0 0
1:56 pm 13:56 Mostly Sunny 83 28.3 65 18.3 55 55 VRB 5 7 30.03 1017 10 16.0934 0 0
2:56 pm 14:56 Mostly Sunny 80 26.6 65 18.3 60 60 W 6 9 30.02 1017 10 16.0934 0 0
3:56 pm 15:56 Mostly Sunny 80 26.6 66 18.8 62 62 W 7 11 30.01 1016 10 16.0934 0 0
4:56 pm 16:56 Sunny 80 26.6 67 19.4 65 65 SW 10 17 30 1016 10 16.0934 0 0
5:56 pm 17:56 Mostly Sunny 78 25.5 69 20.5 74 74 SSW 8 13 29.99 1016 10 16.0934 0 0
6:56 pm 18:56 Sunny 76 24.4 69 20.5 79 79 SW 7 11 29.99 1016 10 16.0934 0 0
7:56 pm 19:56 Sunny 75 23.8 66 18.8 74 74 WSW 6 9 29.98 1015 10 16.0934 0 0
8:56 pm 20:56 Sunny 73 22.7 67 19.4 82 82 SW 7 11 30.01 1016 10 16.0934 0 0
9:56 pm 21:56 Cloudy 72 22.2 67 19.4 84 84 SSW 7 11 30.03 1017 10 16.0934 0 0
10:56 pm 22:56 Cloudy 71 21.6 67 19.4 87 87 SW 6 9 30.03 1017 10 16.0934 0 0
11:56 pm 23:56 Mostly Clear 70 21.1 67 19.4 90 90 SW 3 6 30.04 1017 10 16.0934 0 0

Powered by AerisWeather